AUA564 LICJ-LOWW

Flight info

Callsign AUA564
Flight time 1h 41m
Altitude 38000
Route ROSAS DCT AMANO DCT VAPUP DCT NIVES DCT ZAG DCT OBUTI OBUTI2W
Aircraft A20N/M-SDE2E3FGHIJ1RWXY/LB1

Departure

Time 2026-04-20 16:15
Airport Falcone–Borsellino Airport (LICJ)

Arrival

Time 2026-04-20 17:56
Airport Vienna International Airport (LOWW)
Time Latitude Longitude Altitude Speed Heading
2026-04-20 15:43 38.18533 13.10556 62 ft 0 kts 338°
2026-04-20 15:59 38.18526 13.10559 63 ft 2 kts 338°
2026-04-20 16:00 38.18512 13.10566 63 ft 2 kts 337°
2026-04-20 16:00 38.18504 13.10571 64 ft 1 kts 338°
2026-04-20 16:00 38.18491 13.10581 64 ft 2 kts 314°
2026-04-20 16:00 38.18481 13.10596 65 ft 2 kts 295°
2026-04-20 16:01 38.18477 13.10614 66 ft 2 kts 275°
2026-04-20 16:01 38.18478 13.10633 66 ft 2 kts 255°
2026-04-20 16:01 38.18480 13.10643 66 ft 1 kts 244°
2026-04-20 16:01 38.18482 13.10647 66 ft 0 kts 246°
2026-04-20 16:03 38.18479 13.10637 66 ft 3 kts 246°
2026-04-20 16:03 38.18465 13.10595 66 ft 6 kts 247°
2026-04-20 16:03 38.18435 13.10533 66 ft 8 kts 220°
2026-04-20 16:03 38.18387 13.10500 67 ft 6 kts 201°
2026-04-20 16:04 38.18340 13.10475 68 ft 8 kts 218°
2026-04-20 16:04 38.18303 13.10400 67 ft 11 kts 242°
2026-04-20 16:04 38.18241 13.10364 69 ft 8 kts 196°
2026-04-20 16:04 38.18203 13.10318 70 ft 7 kts 242°
2026-04-20 16:05 38.18176 13.10250 69 ft 9 kts 245°
2026-04-20 16:05 38.18146 13.10161 67 ft 11 kts 247°
2026-04-20 16:05 38.18112 13.10057 65 ft 13 kts 245°
2026-04-20 16:05 38.18071 13.09939 63 ft 15 kts 247°
2026-04-20 16:06 38.18028 13.09811 61 ft 16 kts 246°
2026-04-20 16:06 38.17982 13.09672 57 ft 17 kts 248°
2026-04-20 16:06 38.17931 13.09525 53 ft 18 kts 246°
2026-04-20 16:06 38.17884 13.09381 50 ft 15 kts 247°
2026-04-20 16:07 38.17841 13.09250 46 ft 16 kts 247°
2026-04-20 16:07 38.17792 13.09109 42 ft 15 kts 246°
2026-04-20 16:07 38.17753 13.08989 39 ft 14 kts 244°
2026-04-20 16:07 38.17709 13.08925 39 ft 9 kts 218°
2026-04-20 16:08 38.17658 13.08876 39 ft 8 kts 217°
2026-04-20 16:08 38.17614 13.08833 40 ft 7 kts 218°
2026-04-20 16:08 38.17575 13.08794 41 ft 6 kts 218°
2026-04-20 16:08 38.17537 13.08757 42 ft 6 kts 213°
2026-04-20 16:09 38.17496 13.08732 43 ft 6 kts 200°
2026-04-20 16:09 38.17455 13.08715 44 ft 6 kts 197°
2026-04-20 16:09 38.17414 13.08699 45 ft 6 kts 197°
2026-04-20 16:09 38.17374 13.08684 46 ft 5 kts 197°
2026-04-20 16:10 38.17337 13.08669 46 ft 5 kts 197°
2026-04-20 16:10 38.17298 13.08654 47 ft 6 kts 197°
2026-04-20 16:10 38.17257 13.08637 48 ft 6 kts 200°
2026-04-20 16:10 38.17211 13.08615 48 ft 7 kts 199°
2026-04-20 16:11 38.17160 13.08594 49 ft 8 kts 197°
2026-04-20 16:11 38.17105 13.08572 49 ft 8 kts 197°
2026-04-20 16:11 38.17044 13.08549 49 ft 10 kts 197°
2026-04-20 16:11 38.16971 13.08519 49 ft 11 kts 197°
2026-04-20 16:12 38.16887 13.08486 48 ft 13 kts 197°
2026-04-20 16:12 38.16806 13.08451 48 ft 12 kts 198°
2026-04-20 16:12 38.16714 13.08444 47 ft 14 kts 164°
2026-04-20 16:12 38.16652 13.08521 51 ft 11 kts 108°
2026-04-20 16:13 38.16673 13.08589 54 ft 6 kts 35°
2026-04-20 16:13 38.16708 13.08613 56 ft 0 kts 24°
2026-04-20 16:14 38.16776 13.08651 59 ft 42 kts 24°
2026-04-20 16:14 38.17298 13.08945 57 ft 117 kts 24°
2026-04-20 16:14 38.18177 13.09430 351 ft 145 kts 24°
2026-04-20 16:15 38.19056 13.09912 1069 ft 137 kts 23°
2026-04-20 16:15 38.19908 13.10382 1773 ft 132 kts 22°
2026-04-20 16:15 38.20754 13.10853 2254 ft 139 kts 24°
2026-04-20 16:15 38.21706 13.11393 2621 ft 156 kts 24°
2026-04-20 16:16 38.22798 13.12013 3035 ft 176 kts 24°
2026-04-20 16:16 38.24003 13.12696 3512 ft 194 kts 24°
2026-04-20 16:16 38.25297 13.13427 3949 ft 215 kts 24°
2026-04-20 16:16 38.26748 13.14302 4464 ft 236 kts 27°
2026-04-20 16:17 38.28326 13.15359 5057 ft 255 kts 28°
2026-04-20 16:17 38.30008 13.16503 5664 ft 274 kts 28°
2026-04-20 16:17 38.31861 13.17762 6572 ft 281 kts 27°
2026-04-20 16:17 38.33608 13.18949 7494 ft 284 kts 27°
2026-04-20 16:18 38.35366 13.20141 8399 ft 287 kts 27°
2026-04-20 16:18 38.37171 13.21361 9303 ft 290 kts 26°
2026-04-20 16:18 38.38979 13.22583 10179 ft 292 kts 26°
2026-04-20 16:18 38.40797 13.23813 10807 ft 303 kts 26°
2026-04-20 16:19 38.42701 13.25099 11377 ft 315 kts 25°
2026-04-20 16:19 38.44646 13.26416 12139 ft 320 kts 25°
2026-04-20 16:19 38.46628 13.27759 12926 ft 323 kts 25°
2026-04-20 16:19 38.48667 13.29142 13699 ft 327 kts 24°
2026-04-20 16:20 38.50749 13.30554 14459 ft 331 kts 24°
2026-04-20 16:20 38.52775 13.31928 15190 ft 334 kts 24°
2026-04-20 16:20 38.54838 13.33327 15920 ft 337 kts 24°
2026-04-20 16:20 38.57075 13.34847 16674 ft 341 kts 23°
2026-04-20 16:21 38.59366 13.36402 17420 ft 345 kts 23°
2026-04-20 16:21 38.61593 13.37917 18119 ft 348 kts 23°
2026-04-20 16:21 38.63717 13.39362 18788 ft 350 kts 23°
2026-04-20 16:21 38.65894 13.40844 19437 ft 354 kts 23°
2026-04-20 16:22 38.68059 13.42318 20053 ft 357 kts 23°
2026-04-20 16:22 38.70244 13.43809 20686 ft 360 kts 23°
2026-04-20 16:22 38.72489 13.45342 21323 ft 363 kts 23°
2026-04-20 16:22 38.74704 13.46855 21927 ft 366 kts 23°
2026-04-20 16:23 38.76947 13.48389 22533 ft 369 kts 23°
2026-04-20 16:23 38.79204 13.49933 23128 ft 372 kts 23°
2026-04-20 16:23 38.81513 13.51514 23713 ft 375 kts 23°
2026-04-20 16:23 38.83825 13.53043 24278 ft 377 kts 20°
2026-04-20 16:24 38.86226 13.54407 24841 ft 377 kts 17°
2026-04-20 16:24 38.88663 13.55574 25378 ft 379 kts 14°
2026-04-20 16:24 38.91167 13.56700 25900 ft 382 kts 14°
2026-04-20 16:24 38.93679 13.57818 26405 ft 385 kts 14°
2026-04-20 16:25 38.96197 13.58939 26896 ft 388 kts 14°
2026-04-20 16:25 38.98769 13.60088 27385 ft 391 kts 14°
2026-04-20 16:25 39.01341 13.61240 27863 ft 393 kts 14°
2026-04-20 16:25 39.03920 13.62397 28331 ft 396 kts 14°
2026-04-20 16:26 39.06505 13.63557 28769 ft 398 kts 13°
2026-04-20 16:26 39.09124 13.64734 29177 ft 400 kts 14°
2026-04-20 16:26 39.11787 13.65931 29574 ft 403 kts 14°
2026-04-20 16:26 39.14406 13.67110 29937 ft 405 kts 14°
2026-04-20 16:27 39.17098 13.68323 30295 ft 408 kts 14°
2026-04-20 16:27 39.19781 13.69533 30624 ft 410 kts 14°
2026-04-20 16:27 39.22478 13.70751 30938 ft 412 kts 14°
2026-04-20 16:27 39.25164 13.71965 31241 ft 414 kts 14°
2026-04-20 16:28 39.27904 13.73203 31532 ft 416 kts 14°
2026-04-20 16:28 39.30644 13.74443 31821 ft 418 kts 14°
2026-04-20 16:28 39.33362 13.75674 32103 ft 420 kts 14°
2026-04-20 16:28 39.36148 13.76937 32392 ft 422 kts 14°
2026-04-20 16:29 39.38919 13.78194 32687 ft 422 kts 14°
2026-04-20 16:29 39.41666 13.79425 33060 ft 420 kts 12°
2026-04-20 16:29 39.44438 13.80514 33439 ft 417 kts 11°
2026-04-20 16:29 39.47209 13.81541 33796 ft 416 kts 10°
2026-04-20 16:30 39.50011 13.82566 34130 ft 415 kts 10°
2026-04-20 16:30 39.52759 13.83569 34444 ft 414 kts 10°
2026-04-20 16:30 39.55548 13.84592 34727 ft 414 kts 10°
2026-04-20 16:30 39.58309 13.85605 34980 ft 413 kts 10°
2026-04-20 16:31 39.61075 13.86621 35236 ft 413 kts 10°
2026-04-20 16:31 39.63813 13.87629 35478 ft 412 kts 10°
2026-04-20 16:31 39.66602 13.88657 35731 ft 412 kts 10°
2026-04-20 16:31 39.69323 13.89661 35965 ft 411 kts
2026-04-20 16:32 39.72087 13.90682 36183 ft 411 kts
2026-04-20 16:32 39.74842 13.91699 36402 ft 410 kts
2026-04-20 16:32 39.77579 13.92711 36675 ft 410 kts
2026-04-20 16:32 39.80324 13.93727 36927 ft 409 kts
2026-04-20 16:33 39.83070 13.94744 37146 ft 410 kts
2026-04-20 16:33 39.85820 13.95763 37337 ft 411 kts
2026-04-20 16:33 39.88544 13.96772 37495 ft 412 kts
2026-04-20 16:33 39.91302 13.97796 37660 ft 413 kts
2026-04-20 16:34 39.94064 13.98822 37840 ft 414 kts
2026-04-20 16:34 39.96839 13.99856 38004 ft 415 kts
2026-04-20 16:34 40.02401 14.01928 38010 ft 415 kts
2026-04-20 16:35 40.07969 14.04006 38013 ft 415 kts
2026-04-20 16:35 40.13493 14.06071 38013 ft 415 kts
2026-04-20 16:36 40.19041 14.08148 38013 ft 415 kts
2026-04-20 16:36 40.24576 14.10225 38013 ft 415 kts
2026-04-20 16:37 40.30114 14.12306 38012 ft 414 kts
2026-04-20 16:37 40.35643 14.14387 38012 ft 414 kts
2026-04-20 16:38 40.41201 14.16481 38011 ft 414 kts
2026-04-20 16:38 40.46722 14.18565 38013 ft 415 kts
2026-04-20 16:39 40.52241 14.20654 38008 ft 414 kts
2026-04-20 16:39 40.57801 14.22761 38007 ft 413 kts
2026-04-20 16:40 40.63290 14.24844 38010 ft 413 kts
2026-04-20 16:40 40.68810 14.26943 38008 ft 413 kts
2026-04-20 16:41 40.74330 14.29045 38011 ft 412 kts
2026-04-20 16:41 40.79850 14.31149 38012 ft 413 kts
2026-04-20 16:42 40.85360 14.33257 38013 ft 413 kts
2026-04-20 16:42 40.90884 14.35372 38015 ft 413 kts
2026-04-20 16:43 40.96385 14.37483 38014 ft 413 kts
2026-04-20 16:43 41.01886 14.39597 38019 ft 412 kts
2026-04-20 16:44 41.07414 14.41723 38015 ft 412 kts
2026-04-20 16:44 41.12898 14.43834 38012 ft 413 kts
2026-04-20 16:45 41.18389 14.45955 38000 ft 412 kts
2026-04-20 16:45 41.23888 14.48083 37992 ft 411 kts
2026-04-20 16:46 41.29369 14.50208 37987 ft 411 kts
2026-04-20 16:46 41.34861 14.52340 37983 ft 411 kts
2026-04-20 16:47 41.40368 14.54483 37991 ft 411 kts
2026-04-20 16:47 41.45844 14.56615 37983 ft 411 kts
2026-04-20 16:48 41.51322 14.58754 37982 ft 411 kts
2026-04-20 16:48 41.56808 14.60899 37982 ft 411 kts
2026-04-20 16:49 41.62314 14.63057 37980 ft 411 kts
2026-04-20 16:49 41.67807 14.65212 37974 ft 410 kts
2026-04-20 16:50 41.73255 14.67352 37965 ft 410 kts
2026-04-20 16:50 41.78750 14.69516 37957 ft 411 kts
2026-04-20 16:51 41.84244 14.71683 37947 ft 412 kts
2026-04-20 16:51 41.89780 14.73872 37938 ft 411 kts
2026-04-20 16:52 41.95226 14.76028 37932 ft 411 kts 10°
2026-04-20 16:52 42.00709 14.78203 37928 ft 411 kts 10°
2026-04-20 16:53 42.06196 14.80382 37935 ft 411 kts
2026-04-20 16:53 42.11685 14.82567 37938 ft 411 kts 10°
2026-04-20 16:54 42.17164 14.84752 37925 ft 412 kts
2026-04-20 16:54 42.22643 14.86940 37929 ft 411 kts 10°
2026-04-20 16:55 42.28141 14.89141 37930 ft 412 kts 10°
2026-04-20 16:55 42.33610 14.91334 37930 ft 413 kts
2026-04-20 16:56 42.39132 14.93551 37925 ft 413 kts 10°
2026-04-20 16:56 42.44632 14.95765 37925 ft 413 kts 10°
2026-04-20 16:57 42.50136 14.97985 37925 ft 412 kts 10°
2026-04-20 16:57 42.55642 15.00209 37933 ft 413 kts 10°
2026-04-20 16:58 42.61179 15.02450 37923 ft 414 kts
2026-04-20 16:58 42.66696 15.04685 37920 ft 414 kts 10°
2026-04-20 16:59 42.72234 15.06934 37923 ft 414 kts 10°
2026-04-20 16:59 42.77764 15.09186 37923 ft 414 kts 10°
2026-04-20 17:00 42.86048 15.12562 37925 ft 414 kts
2026-04-20 17:01 42.91568 15.14817 37928 ft 414 kts 10°
2026-04-20 17:01 42.97097 15.17082 37929 ft 414 kts 10°
2026-04-20 17:02 43.02658 15.19364 37925 ft 415 kts 10°
2026-04-20 17:02 43.08230 15.21409 37925 ft 412 kts
2026-04-20 17:03 43.13823 15.23161 37932 ft 411 kts
2026-04-20 17:03 43.19444 15.24912 37938 ft 411 kts
2026-04-20 17:04 43.25047 15.26665 37934 ft 412 kts
2026-04-20 17:04 43.30658 15.28428 37928 ft 412 kts
2026-04-20 17:05 43.36247 15.30186 37938 ft 412 kts
2026-04-20 17:05 43.41831 15.31948 37935 ft 412 kts
2026-04-20 17:06 43.47433 15.33718 37932 ft 412 kts
2026-04-20 17:06 43.53004 15.35480 37933 ft 413 kts
2026-04-20 17:07 43.58601 15.37256 37935 ft 413 kts
2026-04-20 17:07 43.64201 15.39036 37939 ft 413 kts
2026-04-20 17:07 43.66988 15.39924 37710 ft 414 kts
2026-04-20 17:08 43.69767 15.40810 37467 ft 413 kts
2026-04-20 17:08 43.72617 15.41719 37212 ft 412 kts
2026-04-20 17:08 43.75386 15.42604 36990 ft 411 kts
2026-04-20 17:09 43.80954 15.44384 36947 ft 411 kts
2026-04-20 17:09 43.86514 15.46163 36946 ft 412 kts
2026-04-20 17:10 43.92086 15.47950 36945 ft 412 kts
2026-04-20 17:10 43.97657 15.49740 36942 ft 412 kts
2026-04-20 17:11 44.03243 15.51539 36941 ft 411 kts
2026-04-20 17:11 44.08790 15.53330 36944 ft 412 kts
2026-04-20 17:12 44.14361 15.55130 36947 ft 412 kts
2026-04-20 17:12 44.19960 15.56944 36947 ft 413 kts
2026-04-20 17:13 44.25534 15.58753 36950 ft 413 kts
2026-04-20 17:13 44.31119 15.60570 36956 ft 414 kts
2026-04-20 17:14 44.36694 15.62387 36951 ft 413 kts
2026-04-20 17:14 44.42311 15.64221 36953 ft 413 kts
2026-04-20 17:15 44.47888 15.66047 36952 ft 414 kts
2026-04-20 17:15 44.53454 15.67870 36956 ft 414 kts
2026-04-20 17:16 44.59064 15.69712 36946 ft 414 kts
2026-04-20 17:16 44.64654 15.71553 36951 ft 414 kts
2026-04-20 17:17 44.70260 15.73400 36947 ft 414 kts
2026-04-20 17:17 44.75874 15.75254 36951 ft 415 kts
2026-04-20 17:18 44.81500 15.77116 36953 ft 415 kts
2026-04-20 17:18 44.87102 15.78975 36950 ft 415 kts
2026-04-20 17:19 44.92712 15.80840 36953 ft 415 kts
2026-04-20 17:19 44.98323 15.82709 36954 ft 416 kts
2026-04-20 17:20 45.03953 15.84586 36944 ft 416 kts
2026-04-20 17:20 45.09551 15.86458 36952 ft 416 kts
2026-04-20 17:21 45.15217 15.88356 36967 ft 417 kts
2026-04-20 17:21 45.20821 15.90324 36948 ft 419 kts
2026-04-20 17:22 45.26355 15.93076 36955 ft 425 kts 15°
2026-04-20 17:22 45.31817 15.96284 36945 ft 425 kts 15°
2026-04-20 17:23 45.37231 15.99493 36970 ft 425 kts 15°
2026-04-20 17:23 45.42681 16.02717 36968 ft 425 kts 15°
2026-04-20 17:24 45.48142 16.05952 36974 ft 425 kts 15°
2026-04-20 17:24 45.53558 16.09164 36981 ft 425 kts 15°
2026-04-20 17:25 45.59030 16.12416 36990 ft 426 kts 15°
2026-04-20 17:25 45.64480 16.15663 36994 ft 425 kts 15°
2026-04-20 17:26 45.69922 16.18909 36984 ft 426 kts 15°
2026-04-20 17:26 45.75359 16.22160 36991 ft 426 kts 15°
2026-04-20 17:27 45.80812 16.25428 36987 ft 426 kts 15°
2026-04-20 17:27 45.86356 16.28216 37001 ft 419 kts
2026-04-20 17:28 45.91986 16.29782 37008 ft 411 kts 359°
2026-04-20 17:28 45.97636 16.30166 36796 ft 405 kts 352°
2026-04-20 17:28 46.00453 16.30012 36559 ft 401 kts 351°
2026-04-20 17:29 46.03205 16.29822 36317 ft 397 kts 350°
2026-04-20 17:29 46.05943 16.29629 36088 ft 395 kts 350°
2026-04-20 17:29 46.08693 16.29437 35900 ft 392 kts 350°
2026-04-20 17:29 46.11388 16.29250 35728 ft 390 kts 350°
2026-04-20 17:30 46.14103 16.29063 35459 ft 390 kts 349°
2026-04-20 17:30 46.16797 16.28875 34964 ft 395 kts 349°
2026-04-20 17:30 46.19548 16.28681 34141 ft 403 kts 349°
2026-04-20 17:30 46.22338 16.28486 33344 ft 407 kts 349°
2026-04-20 17:31 46.25166 16.28295 32649 ft 408 kts 348°
2026-04-20 17:31 46.28020 16.28102 31918 ft 409 kts 348°
2026-04-20 17:31 46.30832 16.27908 31227 ft 408 kts 348°
2026-04-20 17:31 46.33652 16.27718 30673 ft 404 kts 348°
2026-04-20 17:32 46.36415 16.27501 30163 ft 398 kts 346°
2026-04-20 17:32 46.39150 16.27088 29821 ft 384 kts 343°
2026-04-20 17:32 46.41703 16.26540 29842 ft 370 kts 342°
2026-04-20 17:33 46.46772 16.25344 29870 ft 368 kts 341°
2026-04-20 17:33 46.49280 16.24742 29646 ft 370 kts 341°
2026-04-20 17:33 46.51831 16.24131 29116 ft 369 kts 341°
2026-04-20 17:33 46.54330 16.23541 28620 ft 367 kts 341°
2026-04-20 17:34 46.56842 16.22944 28134 ft 365 kts 341°
2026-04-20 17:34 46.59320 16.22354 27642 ft 363 kts 341°
2026-04-20 17:34 46.61800 16.21766 27166 ft 361 kts 341°
2026-04-20 17:34 46.64290 16.21171 26694 ft 359 kts 341°
2026-04-20 17:35 46.66720 16.20590 26252 ft 356 kts 341°
2026-04-20 17:35 46.69146 16.20013 25843 ft 352 kts 341°
2026-04-20 17:35 46.71531 16.19443 25397 ft 350 kts 341°
2026-04-20 17:35 46.73950 16.18864 24911 ft 348 kts 341°
2026-04-20 17:36 46.76318 16.18298 24501 ft 343 kts 341°
2026-04-20 17:36 46.78643 16.17743 24254 ft 344 kts 341°
2026-04-20 17:36 46.81007 16.17171 23993 ft 344 kts 341°
2026-04-20 17:36 46.83364 16.16604 23735 ft 342 kts 341°
2026-04-20 17:37 46.85701 16.16043 23477 ft 342 kts 341°
2026-04-20 17:37 46.88051 16.15478 23215 ft 339 kts 341°
2026-04-20 17:37 46.90356 16.14923 22954 ft 339 kts 341°
2026-04-20 17:37 46.92671 16.14363 22693 ft 339 kts 341°
2026-04-20 17:38 46.94995 16.13806 22444 ft 338 kts 341°
2026-04-20 17:38 46.97308 16.13250 22182 ft 336 kts 341°
2026-04-20 17:38 46.99615 16.12695 21921 ft 336 kts 341°
2026-04-20 17:38 47.01922 16.12138 21659 ft 336 kts 342°
2026-04-20 17:39 47.04221 16.11585 21395 ft 334 kts 342°
2026-04-20 17:39 47.06488 16.11034 21153 ft 333 kts 342°
2026-04-20 17:39 47.08786 16.10477 20894 ft 333 kts 342°
2026-04-20 17:39 47.11064 16.09924 20644 ft 333 kts 342°
2026-04-20 17:40 47.13322 16.09377 20377 ft 330 kts 342°
2026-04-20 17:40 47.15606 16.08823 20125 ft 331 kts 343°
2026-04-20 17:40 47.17873 16.08271 19868 ft 330 kts 343°
2026-04-20 17:40 47.20134 16.07722 19599 ft 330 kts 343°
2026-04-20 17:41 47.22383 16.07175 19348 ft 329 kts 343°
2026-04-20 17:41 47.24655 16.06620 19087 ft 328 kts 343°
2026-04-20 17:41 47.26885 16.06080 18828 ft 327 kts 343°
2026-04-20 17:41 47.29143 16.05530 18576 ft 327 kts 343°
2026-04-20 17:42 47.31353 16.04988 18322 ft 326 kts 344°
2026-04-20 17:42 47.33588 16.04464 18053 ft 326 kts 347°
2026-04-20 17:42 47.35900 16.04737 17631 ft 344 kts 11°
2026-04-20 17:42 47.38016 16.06491 17046 ft 359 kts 31°
2026-04-20 17:43 47.39982 16.08754 16437 ft 362 kts 32°
2026-04-20 17:43 47.41974 16.11042 15858 ft 362 kts 31°
2026-04-20 17:43 47.43971 16.13282 15289 ft 362 kts 31°
2026-04-20 17:43 47.45972 16.15477 14723 ft 361 kts 30°
2026-04-20 17:44 47.47981 16.17654 14167 ft 360 kts 30°
2026-04-20 17:44 47.50019 16.19847 13600 ft 359 kts 30°
2026-04-20 17:44 47.52029 16.22001 13075 ft 357 kts 31°
2026-04-20 17:44 47.54012 16.24121 12565 ft 355 kts 31°
2026-04-20 17:45 47.56005 16.26257 12051 ft 352 kts 31°
2026-04-20 17:45 47.57980 16.28370 11541 ft 349 kts 31°
2026-04-20 17:45 47.59926 16.30453 11035 ft 345 kts 31°
2026-04-20 17:45 47.61807 16.32471 10525 ft 329 kts 31°
2026-04-20 17:46 47.63607 16.34405 10011 ft 312 kts 31°
2026-04-20 17:46 47.65310 16.36237 9498 ft 297 kts 31°
2026-04-20 17:46 47.66941 16.37988 8994 ft 286 kts 31°
2026-04-20 17:46 47.68555 16.39719 8474 ft 285 kts 31°
2026-04-20 17:47 47.70152 16.41430 8006 ft 285 kts 32°
2026-04-20 17:47 47.71749 16.43145 7541 ft 285 kts 31°
2026-04-20 17:47 47.73370 16.44888 7083 ft 286 kts 32°
2026-04-20 17:47 47.74956 16.46598 6638 ft 286 kts 32°
2026-04-20 17:48 47.76550 16.48317 6177 ft 279 kts 32°
2026-04-20 17:48 47.78090 16.49983 5718 ft 269 kts 32°
2026-04-20 17:48 47.79566 16.51578 5296 ft 256 kts 32°
2026-04-20 17:48 47.80946 16.53075 4977 ft 241 kts 32°
2026-04-20 17:49 47.82264 16.54502 4671 ft 230 kts 32°
2026-04-20 17:49 47.83554 16.55894 4360 ft 227 kts 32°
2026-04-20 17:49 47.84822 16.57263 4036 ft 224 kts 32°
2026-04-20 17:49 47.86077 16.58620 3707 ft 223 kts 33°
2026-04-20 17:50 47.87327 16.59971 3379 ft 223 kts 33°
2026-04-20 17:50 47.88573 16.61320 3083 ft 222 kts 33°
2026-04-20 17:50 47.89791 16.62647 3007 ft 209 kts 33°
2026-04-20 17:50 47.90921 16.63879 2996 ft 194 kts 32°
2026-04-20 17:51 47.91999 16.65034 3074 ft 185 kts 29°
2026-04-20 17:51 47.93156 16.65472 3038 ft 164 kts 358°
2026-04-20 17:51 47.94212 16.65256 3002 ft 146 kts 348°
2026-04-20 17:51 47.95163 16.64915 3018 ft 138 kts 346°
2026-04-20 17:52 47.96093 16.64542 3021 ft 138 kts 345°
2026-04-20 17:52 47.97008 16.64162 2992 ft 135 kts 344°
2026-04-20 17:52 47.97912 16.63780 2822 ft 134 kts 345°
2026-04-20 17:52 47.98801 16.63402 2639 ft 133 kts 344°
2026-04-20 17:53 47.99695 16.63022 2458 ft 133 kts 343°
2026-04-20 17:53 48.00589 16.62642 2281 ft 133 kts 343°
2026-04-20 17:53 48.01468 16.62269 2106 ft 132 kts 343°
2026-04-20 17:53 48.02351 16.61894 1933 ft 132 kts 343°
2026-04-20 17:54 48.03228 16.61523 1757 ft 131 kts 342°
2026-04-20 17:54 48.04104 16.61152 1582 ft 131 kts 342°
2026-04-20 17:54 48.04986 16.60778 1405 ft 131 kts 343°
2026-04-20 17:54 48.05861 16.60408 1233 ft 130 kts 343°
2026-04-20 17:55 48.06733 16.60039 1067 ft 130 kts 343°
2026-04-20 17:55 48.07614 16.59664 908 ft 130 kts 343°
2026-04-20 17:55 48.08479 16.59297 723 ft 129 kts 343°
2026-04-20 17:55 48.09330 16.58937 610 ft 123 kts 344°
2026-04-20 17:56 48.10018 16.58645 609 ft 76 kts 344°
2026-04-20 17:56 48.10404 16.58479 609 ft 48 kts 343°
2026-04-20 17:56 48.10642 16.58366 609 ft 26 kts 334°
2026-04-20 17:56 48.10769 16.58222 609 ft 19 kts 316°
2026-04-20 17:57 48.10841 16.58110 609 ft 9 kts 312°
2026-04-20 17:57 48.10886 16.58037 609 ft 10 kts 316°
2026-04-20 17:57 48.10949 16.57978 609 ft 11 kts 334°
2026-04-20 17:57 48.11026 16.57940 609 ft 12 kts 345°
2026-04-20 17:58 48.11091 16.57914 609 ft 9 kts 345°
2026-04-20 17:58 48.11155 16.57887 609 ft 9 kts 343°
2026-04-20 17:58 48.11222 16.57857 609 ft 10 kts 343°
2026-04-20 17:58 48.11295 16.57824 609 ft 11 kts 343°
2026-04-20 17:59 48.11375 16.57788 609 ft 12 kts 345°
2026-04-20 17:59 48.11451 16.57760 609 ft 8 kts 346°
2026-04-20 17:59 48.11509 16.57737 609 ft 9 kts 345°
2026-04-20 17:59 48.11576 16.57710 609 ft 10 kts 344°
2026-04-20 18:00 48.11649 16.57678 609 ft 11 kts 344°
2026-04-20 18:00 48.11728 16.57643 609 ft 12 kts 343°
2026-04-20 18:00 48.11805 16.57606 609 ft 8 kts 330°
2026-04-20 18:00 48.11829 16.57527 609 ft 8 kts 268°
2026-04-20 18:01 48.11823 16.57475 609 ft 5 kts 255°
2026-04-20 18:01 48.11811 16.57411 609 ft 6 kts 258°
2026-04-20 18:01 48.11817 16.57335 609 ft 8 kts 287°
2026-04-20 18:01 48.11838 16.57266 609 ft 5 kts 296°
2026-04-20 18:02 48.11853 16.57209 609 ft 3 kts 280°
2026-04-20 18:02 48.11853 16.57177 609 ft 3 kts 271°
2026-04-20 18:02 48.11857 16.57146 609 ft 3 kts 287°
2026-04-20 18:02 48.11865 16.57114 609 ft 3 kts 293°
2026-04-20 18:03 48.11875 16.57082 609 ft 3 kts 295°
2026-04-20 18:03 48.11885 16.57050 609 ft 3 kts 296°
2026-04-20 18:03 48.11895 16.57017 609 ft 3 kts 296°
2026-04-20 18:03 48.11906 16.56984 609 ft 3 kts 297°
2026-04-20 18:04 48.11918 16.56950 609 ft 3 kts 297°
2026-04-20 18:04 48.11929 16.56915 609 ft 3 kts 295°
2026-04-20 18:04 48.11940 16.56880 609 ft 3 kts 296°
2026-04-20 18:04 48.11952 16.56844 609 ft 3 kts 295°
2026-04-20 18:05 48.11932 16.56791 609 ft 3 kts 207°
2026-04-20 18:05 48.11916 16.56780 609 ft 1 kts 206°
2026-04-20 18:05 48.11906 16.56772 609 ft 1 kts 207°
2026-04-20 18:06 48.11903 16.56770 609 ft 0 kts 206°
2026-04-20 18:06 48.11900 16.56768 609 ft 0 kts 206°